Regional Weather Roundup
Issued by NWS

Home | Current Version | Previous Version | Text Only | Print | Product List | Glossary Off
Versions: 1 2 3 4 5 6 7 8 9 10 11 12 13 14 15 16 17 18 19 20 21 22 23 24 25 26 27 28 29 30 31 32 33 34 35 36 37 38 39 40 41 42 43 44 45 46 47 48 49 50

000
ASUS45 KBOI 300210
RWRID
WEATHER ROUNDUP FOR IDAHO
NATIONAL WEATHER SERVICE BOISE ID
700 PM MST THU JAN 29 2015

NOTE: "FAIR" INDICATES FEW OR NO CLOUDS BELOW 12000 FEET
WITH NO SIGNIFICANT WEATHER AND/OR OBSTRUCTIONS TO VISIBILITY

IDZ012-014-300300-
SOUTHWEST IDAHO


CITY           SKY/WX    TMP DP  RH WIND       PRES   REMARKS
BOISE          CLOUDY    42  34  73 NW6       30.34R
CALDWELL       CLOUDY    43  34  70 NW5       30.36S
$$

IDZ016-017-300300-
SOUTHCENTRAL IDAHO


CITY           SKY/WX    TMP DP  RH WIND       PRES   REMARKS
BURLEY         CLOUDY    38  32  79 E8        30.27F WCI  32
JEROME         CLOUDY    37  32  82 NE9       30.29S WCI  30
TWIN FALLS     CLOUDY    40  33  76 NE5       30.28S
$$

IDZ019>023-300300-
SOUTHEAST IDAHO


CITY           SKY/WX    TMP DP  RH WIND       PRES   REMARKS
IDAHO FALLS    MOCLDY    33  29  85 N6        30.32F WCI  28
POCATELLO      CLEAR     35  31  85 NE7       30.31S WCI  29
REXBURG        MOCLDY    31  28  89 E7        30.32S WCI  24
$$

IDZ006-010-011-018-031-032-300300-
CENTRAL IDAHO MOUNTAINS


CITY           SKY/WX    TMP DP  RH WIND       PRES   REMARKS
MCCALL         CLEAR     28  25  88 CALM      30.28F
HAILEY         MOCLDY    32  28  86 NW6       30.31S WCI  26
STANLEY          N/A     21  15  78 S5        30.31R WCI  15
SALMON         PTCLDY    21  18  86 CALM      30.38S
CHALLIS        CLOUDY    30  24  78 NE3       30.37R
$$

IDZ002-004-006-007-026-300300-
NORTHERN IDAHO


CITY           SKY/WX    TMP DP  RH WIND       PRES   REMARKS
LEWISTON       MOCLDY    39  35  86 CALM      30.38S
LOWELL           N/A     36  33  89 N3        30.40R
COEUR D`ALENE  PTCLDY    32  28  86 N5        30.36S WCI  27
MULLAN PASS    PTCLDY    32  21  64 W3        30.29R
$$


USA.gov is the U.S. government's official web portal to all federal, state and local government web resources and services.